JO-97
1 43803U 18099AX  24339.12132176  .00021802  00000-0  12049-2 0  9990
2 43803  97.4964  34.4837 0009682  79.9309 280.3014 15.13871515328345
Suomi 100
1 43804U 18099AY  24339.68824439  .00016612  00000-0  95570-3 0  9996
2 43804  97.5037  34.7265 0015366  77.9614 282.3338 15.12429201328395
ISAT
1 43879U 18111D   24339.57868622  .00026160  00000-0  12421-2 0  9995
2 43879  97.6061 245.2306 0012901 122.2627 237.9859 15.19148679325205
UWE-4
1 43880U 18111E   24339.45679029  .00023731  00000-0  11937-2 0  9997
2 43880  97.5994 244.5996 0015833 134.2066 226.0470 15.17118197325179
Sparrow
1 43881U 18111F   24339.28491255  .00029528  00000-0  13726-2 0  9990
2 43881  97.6179 247.2127 0008892 154.6816 205.4855 15.19894531325238
Prox-1
1 44339U 19036A   24339.32582232  .00020219  00000-0  30134-2 0  9997
2 44339  23.9961 205.8607 0007552 101.7495 258.3848 14.73338259290306
SONATE
1 44400U 19038Q   24339.59157814  .00053622  00000-0  97301-3 0  9995
2 44400  97.7124 343.0020 0010274 203.1924 156.8864 15.49365149300313
Taurus 1
1 44530U 19059C   24339.67503416  .00013925  00000-0  28539-2 0  9992
2 44530  98.5898 105.1377 0010665 249.5643 110.4411 14.60807996276603
Duchifat 3
1 44854U 19089C   24339.64973998  .00041138  00000-0  14684-2 0  9990
2 44854  36.9512  86.3704 0010547  87.1144 273.0814 15.27895050274171
TO-108
1 44881U 19093C   24339.80855859  .00002770  00000-0  33215-3 0  9999
2 44881  97.8139  53.2714 0015240 121.5704 238.7001 14.84783493268354
FloripaSat 1
1 44885U 19093G   24339.75120486  .00011224  00000-0  10416-2 0  9999
2 44885  97.8304  61.3967 0012134 109.0783 251.1752 14.94532723268800
RS-44
1 44909U 19096E   24339.54639832  .00000014  00000-0  12697-4 0  9996
2 44909  82.5217 351.5723 0217717  13.2154 347.4525 12.79736610230760
UPMSat 2
1 46276U 20061E   24339.77454954  .00042365  00000-0  86437-3 0  9991
2 46276  97.2737  45.0650 0000667 169.2825 190.8438 15.46083228236412
AmicalSat
1 46287U 20061R   24339.71952165  .00256011  00000-0  17842-2 0  9992
2 46287  97.3178  49.9254 0002529 284.6778  75.4206 15.73593713235971
SALSAT
1 46495U 20068K   24339.45389555  .00015081  00000-0  74395-3 0  9995
2 46495  97.8398 303.7806 0014946  88.5484 271.7460 15.17919727230092
IDEASSat
1 47458U 21006AX  24339.70199350  .01317893  10655-2  17951-2 0  9998
2 47458  97.2844  43.9372 0005381 294.7994  65.2728 16.06544855215151
CubeSX-Sirius-HSE
1 47951U 21022V   24339.83292827  .00063936  00000-0  15004-2 0  9994
2 47951  97.4397 239.1822 0006468 246.6145 113.4422 15.41803943204704
CubeSX-HSE
1 47952U 21022W   24339.82933361  .00062822  00000-0  14562-2 0  9990
2 47952  97.4396 239.3219 0006548 243.4888 116.5688 15.42179482204718
KSU-Cubesat
1 47954U 21022Y   24339.73105178  .00096289  00000-0  16418-2 0  9995
2 47954  97.4404 241.8355 0004363 217.0241 143.0711 15.51005251204581
GRBAlpha
1 47959U 21022AD  24339.78746515  .00060000  00000-0  13925-2 0  9993
2 47959  97.4397 239.4475 0006409 244.2259 115.8327 15.42156298203539
Orbicraft-Zorkiy
1 47960U 21022AE  24339.81920173  .00082191  00000-0  15789-2 0  9998
2 47960  97.4435 241.6875 0004640 233.6484 126.4338 15.47649448204349
TUBIN
1 48900U 21059X   24339.78330908  .00041578  00000-0  98095-3 0  9996
2 48900  97.6623 130.9057 0005241 201.0862 159.0168 15.41759512191092
LEDSAT
1 49069U 21073D   24339.75149995  .00042458  00000-0  11487-2 0  9997
2 49069  97.4167  50.8581 0015170  39.6160 320.6190 15.37462524182539
CUTE
1 49263U 21088D   24339.16574551  .00053779  00000-0  16438-2 0  9993
2 49263  97.4759  45.2609 0010883 197.7867 162.2995 15.33631421175554
TeikyoSat 4
1 49396U 21102B   24339.56658877  .00004326  00000-0  29911-3 0  9990
2 49396  97.4373  18.6317 0014524  58.9719 301.2933 15.06137856168386
Z-Sat
1 49399U 21102E   24339.79742981  .00008914  00000-0  52644-3 0  9994
2 49399  97.4084  20.9575 0020024  34.7250 325.5283 15.11565044168730
KOSEN 1
1 49402U 21102H   24339.62798898  .00012279  00000-0  64057-3 0  9999
2 49402  97.3997  22.9831 0017648  16.5163 343.6641 15.15951429168923
HO-113
1 50466U 21131B   24339.71628976  .00001595  00000-0  51720-3 0  9994
2 50466  98.5215  63.9941 0003747 351.1055   9.0066 14.40316865154544
IRIS-A
1 51044U 22002BN  24339.59173210  .00060329  00000-0  11773-2 0  9990
2 51044  97.3606  46.8773 0004851 137.6195 222.5430 15.47284548160612
Foresail-1
1 52766U 22057AL  24339.61986152  .00058558  00000-0  11330-2 0  9992
2 52766  97.5979 110.9890 0007492 244.9619 115.0853 15.47523951140650
SNUGLITE 2
1 52899U 22065F   24339.47039394  .00003415  00000-0  68751-3 0  9991
2 52899  98.1424 117.7192 0007272 347.9637  12.1389 14.62165313129130
IO-117
1 53106U 22080B   24331.77042742 -.00000003  00000-0  00000-0 0  9997
2 53106  70.1300 136.0386 0008362  70.8561 289.3004  6.42557781 55710
FO-118
1 54684U 22167C   24339.80794518  .00117767  00000-0  17240-2 0  9993
2 54684  97.6150 131.3681 0008352 263.2784  96.7519 15.55139791110555
SSS-2B
1 56184U 23054G   24339.28265079  .00506409  00000-0  18677-2 0  9993
2 56184  97.3366 242.0685 0005107 105.8847 254.2987 15.86976491 92579
SO-120
1 56992U 23084BU  24339.57464656  .00154205  00000-0  20933-2 0  9998
2 56992  97.5376 103.6442 0004360 153.8744 206.2731 15.57090995 82387
MRC-100
1 56993U 23084BV  24339.31085034  .00348164  00000-0  26238-2 0  9993
2 56993  97.5338 105.1003 0001821 231.0684 129.0417 15.71470630 82463
UmKA 1 (RS40S)
1 57172U 23091G   24339.58237682  .00010885  00000-0  64388-3 0  9993
2 57172  97.5877  30.1152 0014271 258.0416 101.9214 15.11544986 79198
CubeBel-2 (EU11S)
1 57175U 23091K   24339.58759538  .00015204  00000-0  84702-3 0  9997
2 57175  97.5879  30.4037 0012395 269.6579  90.3232 15.13640393 79216
VERONIKA
1 58261U 23174F   24339.69632799  .00052349  00000-0  14964-2 0  9990
2 58261  97.4413  54.2256 0008974   1.2632 358.8632 15.35772575 59734
KAFASAT
1 58317U 23174BP  24339.56660125  .00094163  00000-0  19487-2 0  9997
2 58317  97.4342  55.9385 0007533 327.9856  32.0935 15.45410770 59851
ENSO
1 58470U 23185J   24339.70340085  .00039632  00000-0  11522-2 0  9997
2 58470  97.4036  45.6646 0010359  38.7039 321.4945 15.35295353 56183
EIRSAT-1
1 58472U 23185L   24339.80144598  .00049792  00000-0  13415-2 0  9992
2 58472  97.4028  46.1074 0009528  36.9771 323.2128 15.37625538 56228
SONATE-2
1 59112U 24043Q   24339.32823305  .00024897  00000-0  95574-3 0  9991
2 59112  97.4960 102.3593 0013579  60.0451 300.2133 15.26368275 41685
MO-122
1 60209U 24125G   24339.56923363  .00023752  00000-0  90496-3 0  9999
2 60209  97.2980 188.2748 0024850  83.9134 276.4935 15.26417700 23339
GRBBeta
1 60237U 24128C   24339.43912371  .00008625  00000-0  70556-3 0  9993
2 60237  61.9943  10.6379 0029827  10.1244 350.0439 14.99636556 22101
Curium One
1 60242U 24128H   24339.47023363  .00013449  00000-0  10746-2 0  9991
2 60242  61.9847  10.6148 0030175   1.7996 358.3196 15.00182483 22112
ROBUSTA-3A
1 60243U 24128J   24339.82666009  .00013123  00000-0  10577-2 0  9992
2 60243  61.9912   9.6816 0028230 359.3982   0.7069 14.99909053 22161
CatSat
1 60246U 24125J   24338.82866630  .00019758  00000-0  78241-3 0  9996
2 60246  97.2783 188.3515 0049615  41.9568 318.5454 15.24297857 21323
CosmoGirlSat
1 60953U 98067WT  24339.84802357  .01687531  21076-2  18489-2 0  9992
2 60953  51.6102 176.7307 0010937 254.8571 105.1233 16.09434621 15291
CySat-1
1 61501U 98067WZ  24339.83521312  .00284223  00000-0  20232-2 0  9991
2 61501  51.6296 185.7710 0013029 238.9852 120.9867 15.72340070  9006
AO-123
1 99130U 20499A   24339.27730324 -.00075708  00000-0 -31541-2 0 00003
2 99130 097.3798 203.6106 0018654 134.9601 271.4477 15.23657628000011
